Satellite-Ground Cal/Val Region Overpasses Predictions

Prediction of Satellite NPP Overpassing Cal/Val Region: PacNW

Region Location: (Latitude: 10.00, Longitude: 139.50) to (Latitude: 22.70, Longitude: 165.60).

Table of predicted overpasses for the next 14.0 days since TLE Epoch: 3/9/2019
Interval Starting Time Starting Location Ending Time Ending Location
1 03/09/2019 15:49:09 ( 22.67, 147.58) 03/09/2019 15:52:44 ( 10.05, 144.57)
2 03/10/2019 02:58:14 ( 10.02, 155.10) 03/10/2019 03:01:50 ( 22.70, 152.09)
3 03/10/2019 15:30:07 ( 22.68, 152.34) 03/10/2019 15:33:42 ( 10.06, 149.34)
4 03/11/2019 02:39:12 ( 10.01, 159.86) 03/11/2019 02:42:48 ( 22.69, 156.85)
5 03/11/2019 15:11:04 ( 22.68, 157.10) 03/11/2019 15:14:40 ( 10.00, 154.08)
6 03/12/2019 02:20:09 ( 10.00, 164.63) 03/12/2019 02:23:45 ( 22.68, 161.61)
7 03/12/2019 14:52:02 ( 22.69, 161.86) 03/12/2019 14:55:38 ( 10.01, 158.84)
8 03/13/2019 03:42:37 ( 10.00, 144.01) 03/13/2019 03:46:13 ( 22.68, 141.00)
9 03/13/2019 14:34:11 ( 18.54, 165.60) 03/13/2019 14:36:36 ( 10.02, 163.61)
10 03/13/2019 16:14:29 ( 22.70, 141.25) 03/13/2019 16:16:31 ( 15.54, 139.51)
11 03/14/2019 03:23:35 ( 10.05, 148.76) 03/14/2019 03:27:10 ( 22.67, 145.76)
12 03/14/2019 15:55:28 ( 22.65, 145.99) 03/14/2019 15:59:03 ( 10.03, 142.99)
13 03/15/2019 03:04:33 ( 10.04, 153.52) 03/15/2019 03:08:08 ( 22.66, 150.52)
14 03/15/2019 15:36:26 ( 22.66, 150.76) 03/15/2019 15:40:01 ( 10.04, 147.75)
15 03/16/2019 02:45:30 ( 10.02, 158.28) 03/16/2019 02:49:05 ( 22.64, 155.28)
16 03/16/2019 15:17:23 ( 22.68, 155.52) 03/16/2019 15:20:58 ( 10.06, 152.52)
17 03/17/2019 02:26:28 ( 10.01, 163.05) 03/17/2019 02:30:04 ( 22.69, 160.03)
18 03/17/2019 14:58:21 ( 22.69, 160.28) 03/17/2019 15:01:57 ( 10.01, 157.27)
19 03/18/2019 02:10:06 ( 19.45, 165.59) 03/18/2019 02:11:01 ( 22.67, 164.79)
20 03/18/2019 03:48:56 ( 10.06, 142.42) 03/18/2019 03:52:25 ( 22.33, 139.50)
21 03/18/2019 14:39:19 ( 22.65, 165.03) 03/18/2019 14:42:54 ( 10.03, 162.03)
22 03/18/2019 16:20:49 ( 22.64, 139.65) 03/18/2019 16:20:59 ( 22.06, 139.51)
23 03/19/2019 03:29:54 ( 10.04, 147.18) 03/19/2019 03:33:29 ( 22.66, 144.18)
24 03/19/2019 16:01:47 ( 22.66, 144.42) 03/19/2019 16:05:22 ( 10.04, 141.42)
25 03/20/2019 03:10:51 ( 10.02, 151.95) 03/20/2019 03:14:26 ( 22.64, 148.94)
26 03/20/2019 15:42:44 ( 22.68, 149.18) 03/20/2019 15:46:20 ( 10.00, 146.17)
27 03/21/2019 02:51:50 ( 10.06, 156.70) 03/21/2019 02:55:25 ( 22.68, 153.69)
28 03/21/2019 15:23:43 ( 22.65, 153.93) 03/21/2019 15:27:18 ( 10.03, 150.93)
29 03/22/2019 02:32:48 ( 10.04, 161.46) 03/22/2019 02:36:23 ( 22.66, 158.46)
30 03/22/2019 15:04:40 ( 22.67, 158.69) 03/22/2019 15:08:15 ( 10.05, 155.69)
31 03/23/2019 02:14:32 ( 12.78, 165.59) 03/23/2019 02:17:21 ( 22.70, 163.21)


NCC Satellite Cal/Val Overpasses Prediction Service
